Binghamton, NY

9:52 AM EST on November 22, 2019 (GMT -0500)
Binghamton Regional-Link

Weather History for KBGM - October, 2019

Change the Weather History Date:

Saturday, October 19, 2019

  Actual Average Record
Temperature  
Mean Temperature 43 °F 47 °F  
Max Temperature 55 °F 56 °F 77 °F (1963)
Min Temperature 30 °F 39 °F 20 °F (1974)
Degree Days  
Heating Degree Days 22 18  
Month to date heating degree days 284 279  
Since 1 July heating degree days 457 536  
Cooling Degree Days 0 0  
Month to date cooling degree days 5 0  
Year to date cooling degree days 389 379  
Moisture  
Dew Point 33 °F    
Average Humidity 72    
Maximum Humidity 100    
Minimum Humidity 44    
Precipitation  
Precipitation 0.00 in 0.10 in 1.81 in (1996)
Month to date precipitation 4.26 2.08  
Year to date precipitation 34.92 31.92  
Snow  
Snow 0.00 in 0.10 in 1.70 in (1972)
Month to date snowfall 0.0 0.3  
Since 1 July snowfall 0.0 0.3  
Since 1 September snowfall 0.0 0.3  
Snow Depth 0.00 in    
Sea Level Pressure  
Sea Level Pressure 30.05 in    
Wind  
Wind Speed 4 mph (WSW)    
Max Wind Speed 7 mph    
Max Gust Speed 11 mph    
Visibility 8 miles    
Events Fog    
T = Trace of Precipitation, MM = Missing Value Source: NWS Daily Summary

Daily Weather History Graph

Daily Weather History Graph

Search for Another Location

Airport or City:

Astronomy

Oct. 19, 2019 Rise Set
Actual Time 7:20 AM EDT 6:16 PM EDT
Civil Twilight 6:52 AM EDT 6:44 PM EDT
Nautical Twilight 6:19 AM EDT 7:17 PM EDT
Astronomical Twilight 5:47 AM EDT 7:49 PM EDT
Moon 10:18 PM EDT (10/19) 12:55 PM EDT (10/19)
Length of Visible Light 11h 51m
Length of Day
10h 55m
Waning Gibbous, 70% of the Moon is Illuminated
Oct 19
Waning Gibbous
Oct 21
Last Quarter
Oct 27
New
Nov 4
First Quarter
Nov 12
Full

Hourly Weather History & Observations

Time (EDT) Temp. Windchill Dew Point Humidity Pressure Visibility Wind Dir Wind Speed Gust Speed Precip Events Conditions
12:24 AM 35.1 °F - 33.1 °F 92% 30.03 in 10.0 mi Calm Calm - N/A   Mostly Cloudy
12:53 AM 36.0 °F 33.3 °F 34.0 °F 93% 30.06 in 10.0 mi West 3.5 mph - N/A   Overcast
1:53 AM 34.0 °F 31.0 °F 33.1 °F 96% 30.07 in 10.0 mi West 3.5 mph - N/A   Mostly Cloudy
2:06 AM 35.1 °F 32.2 °F 33.1 °F 92% 30.03 in 10.0 mi West 3.5 mph - N/A   Scattered Clouds
2:53 AM 34.0 °F 29.8 °F 32.0 °F 92% 30.07 in 10.0 mi WSW 4.6 mph - N/A   Clear
3:53 AM 33.1 °F 28.7 °F 32.0 °F 96% 30.05 in 10.0 mi WSW 4.6 mph - N/A   Clear
4:53 AM 33.1 °F 28.7 °F 32.0 °F 96% 30.06 in 9.0 mi West 4.6 mph - N/A   Clear
5:26 AM 32.0 °F 27.5 °F 32.0 °F 100% 30.02 in 1.5 mi West 4.6 mph - N/A   Partly Cloudy
5:29 AM 32.0 °F 27.5 °F 32.0 °F 100% 30.02 in 0.8 mi West 4.6 mph - N/A   Mist
5:45 AM 33.1 °F 28.7 °F 32.0 °F 96% 30.02 in 2.5 mi West 4.6 mph - N/A   Partly Cloudy
5:53 AM 33.1 °F 28.7 °F 32.0 °F 96% 30.06 in 7.0 mi WNW 4.6 mph - N/A   Partly Cloudy
6:39 AM 30.9 °F 26.2 °F 30.0 °F 96% 30.03 in 1.8 mi West 4.6 mph - N/A   Clear
6:53 AM 30.9 °F 25.2 °F 30.0 °F 96% 30.09 in 1.0 mi West 5.8 mph - N/A   Clear
7:02 AM 30.9 °F 25.2 °F 30.0 °F 96% 30.05 in 3.0 mi West 5.8 mph - N/A   Clear
7:12 AM 30.9 °F 26.2 °F 30.0 °F 96% 30.05 in 0.5 mi West 4.6 mph - N/A Fog Light Freezing Fog
7:20 AM 30.0 °F 25.2 °F 30.0 °F 100% 30.05 in 3.0 mi West 4.6 mph - N/A   Partly Cloudy
7:53 AM 32.0 °F 27.5 °F 30.9 °F 96% 30.09 in 3.0 mi West 4.6 mph - N/A   Clear
8:53 AM 34.0 °F 28.8 °F 33.1 °F 96% 30.10 in 9.0 mi WNW 5.8 mph - N/A   Clear
9:53 AM 42.1 °F 40.2 °F 37.0 °F 82% 30.10 in 10.0 mi WNW 3.5 mph - N/A   Clear
10:53 AM 43.0 °F 40.3 °F 37.0 °F 80% 30.11 in 10.0 mi WSW 4.6 mph - N/A   Partly Cloudy
11:53 AM 46.0 °F 43.9 °F 36.0 °F 68% 30.10 in 10.0 mi West 4.6 mph - N/A   Partly Cloudy
12:53 PM 48.9 °F - 34.0 °F 56% 30.08 in 10.0 mi North 5.8 mph - N/A   Clear
1:53 PM 51.1 °F - 34.0 °F 52% 30.06 in 10.0 mi Calm Calm - N/A   Clear
2:53 PM 54.0 °F - 35.1 °F 49% 30.04 in 10.0 mi Calm Calm - N/A   Clear
3:53 PM 55.0 °F - 36.0 °F 49% 30.04 in 10.0 mi Calm Calm - N/A   Clear
4:53 PM 53.1 °F - 36.0 °F 52% 30.03 in 10.0 mi SSW 4.6 mph - N/A   Clear
5:53 PM 52.0 °F - 30.9 °F 45% 30.02 in 10.0 mi Calm Calm - N/A   Clear
6:53 PM 50.0 °F - 32.0 °F 50% 30.02 in 10.0 mi ESE 3.5 mph - N/A   Clear
7:53 PM 48.9 °F - 30.9 °F 50% 30.02 in 10.0 mi SE 3.5 mph - N/A   Clear
8:53 PM 46.0 °F 43.9 °F 32.0 °F 58% 30.02 in 10.0 mi SE 4.6 mph - N/A   Clear
9:53 PM 46.0 °F 43.1 °F 33.1 °F 61% 30.01 in 10.0 mi South 5.8 mph - N/A   Clear
10:53 PM 46.0 °F 43.1 °F 34.0 °F 63% 30.01 in 10.0 mi SSE 5.8 mph - N/A   Clear
11:53 PM 42.1 °F 40.2 °F 34.0 °F 73% 30.00 in 10.0 mi South 3.5 mph - N/A   Clear